| time (UTC) | temp F | wind direction | speed MPH | gust MPH | rain 1hr in | rain 24hr in | rain mn in | humidity % | barometer mb |
| 20260904234017 | 78 | 232 | 7.0 | 10.0 | 0.00 | 0.02 | 0.02 | 38 | 1012.8 |
| 20260904233517 | 77 | 0 | 4.0 | 10.0 | 0.00 | 0.02 | 0.02 | 38 | 1012.9 |
| 20260904232518 | 78 | 257 | 6.0 | 10.0 | 0.00 | 0.02 | 0.02 | 42 | 1012.9 |
| 20260904232019 | 78 | 188 | 5.0 | 10.0 | 0.00 | 0.02 | 0.02 | 40 | 1012.9 |
| 20260904231537 | 77 | 265 | 5.0 | 10.0 | 0.00 | 0.02 | 0.02 | 43 | 1013.0 |
| 20260904231018 | 77 | 279 | 4.0 | 10.0 | 0.00 | 0.02 | 0.02 | 42 | 1012.9 |
| 20260904230517 | 78 | 267 | 3.0 | 10.0 | 0.00 | 0.02 | 0.02 | 40 | 1013.0 |
| 20260904230036 | 79 | 271 | 6.0 | 10.0 | 0.00 | 0.02 | 0.02 | 40 | 1013.1 |
| 20260904225522 | 78 | 229 | 4.0 | 12.0 | 0.00 | 0.02 | 0.02 | 39 | 1013.1 |
| 20260904225019 | 79 | 234 | 8.0 | 12.0 | 0.00 | 0.02 | 0.02 | 38 | 1013.2 |
| 20260904224536 | 78 | 226 | 5.0 | 12.0 | 0.00 | 0.02 | 0.02 | 41 | 1013.1 |
| 20260904224020 | 77 | 291 | 8.0 | 12.0 | 0.00 | 0.02 | 0.02 | 42 | 1013.2 |
| 20260904223520 | 77 | 33 | 6.0 | 11.0 | 0.00 | 0.02 | 0.02 | 44 | 1013.2 |
| 20260904222521 | 79 | 243 | 6.0 | 12.0 | 0.00 | 0.02 | 0.02 | 39 | 1013.2 |
| 20260904222018 | 78 | 240 | 8.0 | 12.0 | 0.00 | 0.02 | 0.02 | 41 | 1013.2 |
| 20260904221017 | 78 | 291 | 1.0 | 14.0 | 0.00 | 0.02 | 0.02 | 41 | 1013.1 |
| 20260904220519 | 79 | 262 | 8.0 | 14.0 | 0.00 | 0.02 | 0.02 | 40 | 1013.2 |
| 20260904220106 | 78 | 288 | 4.0 | 12.0 | 0.00 | 0.02 | 0.02 | 42 | 1013.1 |
| 20260904215518 | 78 | 96 | 7.0 | 12.0 | 0.00 | 0.02 | 0.02 | 40 | 1013.1 |
| 20260904215018 | 78 | 241 | 6.0 | 11.0 | 0.00 | 0.02 | 0.02 | 42 | 1013.1 |
| 20260904214020 | 77 | 244 | 4.0 | 8.0 | 0.00 | 0.02 | 0.02 | 42 | 1013.1 |
| 20260904213520 | 76 | 110 | 1.0 | 10.0 | 0.00 | 0.02 | 0.02 | 43 | 1013.3 |
| 20260904213039 | 78 | 159 | 3.0 | 10.0 | 0.00 | 0.02 | 0.02 | 40 | 1013.3 |
| 20260904212519 | 78 | 178 | 2.0 | 12.0 | 0.00 | 0.02 | 0.02 | 41 | 1013.3 |
| 20260904212016 | 79 | 248 | 6.0 | 13.0 | 0.00 | 0.02 | 0.02 | 41 | 1013.3 |
| 20260904210518 | 78 | 142 | 5.0 | 13.0 | 0.00 | 0.02 | 0.02 | 42 | 1013.3 |
| 20260904205525 | 78 | 243 | 5.0 | 11.0 | 0.00 | 0.02 | 0.02 | 42 | 1013.3 |
| 20260904205017 | 77 | 203 | 4.0 | 9.0 | 0.00 | 0.02 | 0.02 | 43 | 1013.3 |
| 20260904204017 | 76 | 0 | 1.0 | 9.0 | 0.00 | 0.02 | 0.02 | 47 | 1013.2 |
| 20260904203518 | 77 | 160 | 4.0 | 10.0 | 0.00 | 0.02 | 0.02 | 44 | 1013.3 |
| 20260904203037 | 77 | 269 | 4.0 | 10.0 | 0.00 | 0.02 | 0.02 | 44 | 1013.3 |
| 20260904202517 | 76 | 211 | 4.0 | 13.0 | 0.00 | 0.02 | 0.02 | 45 | 1013.3 |
| 20260904200519 | 76 | 227 | 7.0 | 12.0 | 0.00 | 0.02 | 0.02 | 48 | 1013.3 |
| 20260904195521 | 75 | 273 | 3.0 | 8.0 | 0.00 | 0.02 | 0.02 | 50 | 1013.4 |
| 20260904195019 | 72 | 0 | 0.0 | 2.0 | 0.00 | 0.02 | 0.02 | 57 | 1013.5 |
| 20260904194017 | 72 | 0 | 0.0 | 11.0 | 0.00 | 0.02 | 0.02 | 54 | 1013.6 |
| 20260904193516 | 74 | 0 | 2.0 | 12.0 | 0.00 | 0.02 | 0.02 | 52 | 1013.6 |
| 20260904192515 | 74 | 207 | 4.0 | 12.0 | 0.00 | 0.02 | 0.02 | 52 | 1013.7 |
| 20260904185519 | 74 | 205 | 5.0 | 13.0 | 0.00 | 0.02 | 0.02 | 53 | 1013.8 |
| 20260904185017 | 73 | 258 | 4.0 | 11.0 | 0.00 | 0.02 | 0.02 | 55 | 1013.9 |
| 20260904184020 | 72 | 188 | 5.0 | 11.0 | 0.00 | 0.02 | 0.02 | 56 | 1014.0 |
| 20260904183519 | 73 | 225 | 6.0 | 11.0 | 0.00 | 0.02 | 0.02 | 57 | 1013.9 |
| 20260904183040 | 72 | 220 | 5.0 | 10.0 | 0.00 | 0.02 | 0.02 | 58 | 1013.9 |
| 20260904182025 | 71 | 0 | 2.0 | 10.0 | 0.00 | 0.02 | 0.02 | 61 | 1013.9 |
| 20260904181020 | 69 | 157 | 4.0 | 9.0 | 0.00 | 0.02 | 0.02 | 64 | 1013.9 |
| 20260904180522 | 69 | 193 | 4.0 | 11.0 | 0.00 | 0.02 | 0.02 | 64 | 1014.0 |
| 20260904175517 | 70 | 227 | 5.0 | 11.0 | 0.00 | 0.02 | 0.02 | 66 | 1014.1 |
| 20260904175017 | 70 | 236 | 5.0 | 10.0 | 0.00 | 0.02 | 0.02 | 68 | 1014.1 |
| 20260904174535 | 69 | 257 | 5.0 | 10.0 | 0.00 | 0.02 | 0.02 | 68 | 1014.1 |
| 20260904174016 | 69 | 238 | 4.0 | 10.0 | 0.00 | 0.02 | 0.02 | 69 | 1014.1 |
| 20260904173519 | 68 | 227 | 4.0 | 10.0 | 0.00 | 0.02 | 0.02 | 68 | 1014.1 |
| 20260904173038 | 68 | 242 | 3.0 | 9.0 | 0.00 | 0.02 | 0.02 | 68 | 1014.1 |
| 20260904171017 | 67 | 223 | 2.0 | 10.0 | 0.00 | 0.02 | 0.02 | 75 | 1013.8 |
| 20260904170519 | 67 | 179 | 4.0 | 10.0 | 0.00 | 0.02 | 0.02 | 76 | 1013.8 |
| 20260904165524 | 66 | 235 | 4.0 | 9.0 | 0.00 | 0.02 | 0.02 | 76 | 1013.8 |
| 20260904165021 | 65 | 242 | 4.0 | 10.0 | 0.00 | 0.02 | 0.02 | 78 | 1013.7 |
| 20260904164545 | 65 | 261 | 6.0 | 10.0 | 0.00 | 0.02 | 0.02 | 79 | 1013.7 |
| 20260904164018 | 64 | 250 | 2.0 | 9.0 | 0.00 | 0.02 | 0.02 | 81 | 1013.7 |
| 20260904163516 | 64 | 225 | 4.0 | 9.0 | 0.00 | 0.02 | 0.02 | 81 | 1013.6 |
| 20260904160520 | 62 | 184 | 3.0 | 7.0 | 0.00 | 0.02 | 0.02 | 85 | 1013.5 |
| 20260904155518 | 61 | 0 | 2.0 | 7.0 | 0.00 | 0.02 | 0.02 | 85 | 1013.5 |
| 20260904155019 | 61 | 172 | 2.0 | 7.0 | 0.00 | 0.02 | 0.02 | 85 | 1013.4 |
| 20260904154023 | 60 | 0 | 0.0 | 3.0 | 0.00 | 0.02 | 0.02 | 87 | 1013.4 |
| 20260904153518 | 59 | 0 | 0.0 | 5.0 | 0.00 | 0.02 | 0.02 | 87 | 1013.4 |
| 20260904152521 | 59 | 163 | 2.0 | 5.0 | 0.00 | 0.02 | 0.02 | 86 | 1013.4 |
| 20260904152019 | 59 | 0 | 0.0 | 4.0 | 0.00 | 0.02 | 0.02 | 86 | 1013.4 |
| 20260904151019 | 59 | 200 | 2.0 | 4.0 | 0.00 | 0.02 | 0.02 | 86 | 1013.4 |
| 20260904150520 | 59 | 217 | 1.0 | 7.0 | 0.00 | 0.02 | 0.02 | 86 | 1013.4 |
| 20260904145517 | 59 | 235 | 4.0 | 7.0 | 0.00 | 0.02 | 0.02 | 87 | 1013.3 |
| 20260904145020 | 59 | 223 | 4.0 | 6.0 | 0.00 | 0.02 | 0.02 | 87 | 1013.2 |
| 20260904144535 | 59 | 210 | 4.0 | 6.0 | 0.00 | 0.02 | 0.02 | 87 | 1013.2 |
| 20260904144019 | 59 | 225 | 3.0 | 5.0 | 0.00 | 0.02 | 0.02 | 87 | 1013.1 |
| 20260904143516 | 59 | 200 | 2.0 | 5.0 | 0.00 | 0.02 | 0.02 | 87 | 1013.0 |
| 20260904142518 | 60 | 204 | 2.0 | 5.0 | 0.00 | 0.02 | 0.02 | 87 | 1012.9 |
| 20260904142023 | 60 | 211 | 1.0 | 6.0 | 0.00 | 0.02 | 0.02 | 87 | 1012.8 |
| 20260904141017 | 60 | 218 | 3.0 | 6.0 | 0.00 | 0.02 | 0.02 | 86 | 1012.6 |
| 20260904140519 | 60 | 201 | 3.0 | 6.0 | 0.00 | 0.02 | 0.02 | 86 | 1012.6 |
| 20260904135518 | 60 | 181 | 0.0 | 4.0 | 0.00 | 0.02 | 0.02 | 87 | 1012.5 |
| 20260904135016 | 60 | 0 | 1.0 | 4.0 | 0.00 | 0.02 | 0.02 | 87 | 1012.5 |
| 20260904134536 | 60 | 184 | 2.0 | 4.0 | 0.00 | 0.02 | 0.02 | 87 | 1012.4 |
| 20260904133523 | 60 | 198 | 0.0 | 4.0 | 0.00 | 0.02 | 0.02 | 87 | 1012.3 |
| 20260904132519 | 60 | 0 | 0.0 | 2.0 | 0.00 | 0.02 | 0.02 | 86 | 1012.3 |
| 20260904132020 | 60 | 0 | 0.0 | 4.0 | 0.00 | 0.02 | 0.02 | 86 | 1012.2 |
| 20260904131018 | 61 | 0 | 0.0 | 1.0 | 0.00 | 0.02 | 0.02 | 87 | 1012.1 |
| 20260904130519 | 61 | 0 | 0.0 | 2.0 | 0.00 | 0.02 | 0.02 | 87 | 1012.1 |
| 20260904125518 | 61 | 177 | 1.0 | 4.0 | 0.00 | 0.02 | 0.02 | 87 | 1012.1 |
| 20260904125016 | 61 | 0 | 1.0 | 5.0 | 0.00 | 0.02 | 0.02 | 87 | 1012.1 |
| 20260904124533 | 61 | 191 | 2.0 | 5.0 | 0.00 | 0.02 | 0.02 | 87 | 1012.1 |
| 20260904124017 | 61 | 196 | 1.0 | 3.0 | 0.00 | 0.02 | 0.02 | 87 | 1012.0 |
| 20260904123522 | 61 | 0 | 0.0 | 3.0 | 0.00 | 0.02 | 0.02 | 87 | 1012.0 |
| 20260904123035 | 61 | 0 | 0.0 | 4.0 | 0.00 | 0.02 | 0.02 | 87 | 1012.0 |
| 20260904122523 | 61 | 205 | 2.0 | 5.0 | 0.00 | 0.02 | 0.02 | 87 | 1011.9 |
| 20260904122018 | 61 | 184 | 3.0 | 7.0 | 0.00 | 0.02 | 0.02 | 87 | 1012.0 |
| 20260904121019 | 61 | 175 | 2.0 | 5.0 | 0.00 | 0.02 | 0.02 | 86 | 1011.9 |
| 20260904120517 | 61 | 212 | 3.0 | 7.0 | 0.00 | 0.02 | 0.02 | 87 | 1011.9 |
| 20260904115515 | 61 | 0 | 0.0 | 3.0 | 0.00 | 0.02 | 0.02 | 87 | 1011.9 |
| 20260904115016 | 61 | 209 | 1.0 | 3.0 | 0.00 | 0.02 | 0.02 | 87 | 1011.9 |
| 20260904114536 | 61 | 0 | 0.0 | 6.0 | 0.00 | 0.02 | 0.02 | 87 | 1011.9 |
| 20260904114019 | 61 | 194 | 1.0 | 6.0 | 0.00 | 0.02 | 0.02 | 87 | 1011.8 |
| 20260904113516 | 61 | 194 | 1.0 | 5.0 | 0.00 | 0.02 | 0.02 | 87 | 1011.7 |
| 20260904112520 | 61 | 208 | 2.0 | 5.0 | 0.00 | 0.02 | 0.02 | 87 | 1011.8 |
| 20260904112017 | 61 | 0 | 1.0 | 4.0 | 0.00 | 0.02 | 0.02 | 87 | 1011.7 |
| 20260904111019 | 62 | 199 | 1.0 | 4.0 | 0.00 | 0.02 | 0.02 | 87 | 1011.7 |
| 20260904110517 | 61 | 0 | 0.0 | 4.0 | 0.00 | 0.02 | 0.02 | 88 | 1011.6 |
| 20260904105516 | 61 | 205 | 2.0 | 4.0 | 0.00 | 0.02 | 0.02 | 88 | 1011.5 |
| 20260904105018 | 61 | 203 | 1.0 | 4.0 | 0.00 | 0.02 | 0.02 | 88 | 1011.5 |
| 20260904104548 | 61 | 0 | 0.0 | 3.0 | 0.00 | 0.02 | 0.02 | 88 | 1011.5 |
| 20260904104021 | 61 | 0 | 0.0 | 5.0 | 0.00 | 0.02 | 0.02 | 88 | 1011.5 |
| 20260904103519 | 62 | 188 | 1.0 | 5.0 | 0.00 | 0.02 | 0.02 | 88 | 1011.5 |
| 20260904102519 | 62 | 202 | 0.0 | 3.0 | 0.00 | 0.02 | 0.02 | 88 | 1011.4 |
| 20260904102016 | 61 | 0 | 0.0 | 3.0 | 0.00 | 0.02 | 0.02 | 88 | 1011.3 |
| 20260904101018 | 61 | 0 | 0.0 | 3.0 | 0.00 | 0.02 | 0.02 | 88 | 1011.2 |
| 20260904100518 | 61 | 215 | 2.0 | 3.0 | 0.00 | 0.02 | 0.02 | 88 | 1011.3 |
| 20260904100038 | 62 | 209 | 0.0 | 4.0 | 0.00 | 0.02 | 0.02 | 88 | 1011.2 |
| 20260904095517 | 62 | 0 | 0.0 | 4.0 | 0.00 | 0.02 | 0.02 | 88 | 1011.2 |
| 20260904094536 | 62 | 209 | 1.0 | 4.0 | 0.00 | 0.02 | 0.02 | 88 | 1011.2 |
| 20260904094019 | 61 | 0 | 0.0 | 3.0 | 0.00 | 0.02 | 0.02 | 88 | 1011.2 |
| 20260904093520 | 61 | 175 | 0.0 | 3.0 | 0.00 | 0.02 | 0.02 | 88 | 1011.2 |
| 20260904092516 | 61 | 0 | 0.0 | 1.0 | 0.00 | 0.02 | 0.02 | 88 | 1011.1 |
| 20260904092017 | 61 | 0 | 0.0 | 1.0 | 0.00 | 0.02 | 0.02 | 88 | 1011.0 |
| 20260904091538 | 61 | 0 | 0.0 | 1.0 | 0.00 | 0.02 | 0.02 | 88 | 1011.1 |
| 20260904091017 | 61 | 0 | 0.0 | 2.0 | 0.00 | 0.02 | 0.02 | 88 | 1011.2 |
| 20260904090515 | 61 | 0 | 0.0 | 2.0 | 0.00 | 0.02 | 0.02 | 88 | 1011.2 |
| 20260904085020 | 62 | 220 | 2.0 | 7.0 | 0.02 | 0.02 | 0.02 | 87 | 1011.2 |
| 20260904084018 | 62 | 258 | 3.0 | 8.0 | 0.02 | 0.02 | 0.02 | 87 | 1011.2 |
| 20260904083517 | 62 | 244 | 5.0 | 8.0 | 0.02 | 0.02 | 0.02 | 86 | 1011.4 |
| 20260904083039 | 62 | 262 | 4.0 | 8.0 | 0.02 | 0.02 | 0.02 | 86 | 1011.3 |
| 20260904082516 | 63 | 263 | 3.0 | 6.0 | 0.02 | 0.02 | 0.02 | 85 | 1011.2 |
| 20260904081018 | 63 | 0 | 0.0 | 2.0 | 0.02 | 0.02 | 0.02 | 83 | 1011.2 |
| 20260904080518 | 63 | 0 | 0.0 | 3.0 | 0.02 | 0.02 | 0.02 | 83 | 1011.3 |
| 20260904075519 | 64 | 0 | 0.0 | 4.0 | 0.01 | 0.01 | 0.01 | 82 | 1011.4 |
| 20260904075017 | 64 | 0 | 0.0 | 4.0 | 0.00 | 0.00 | 0.00 | 81 | 1011.4 |
| 20260904074543 | 64 | 184 | 2.0 | 6.0 | 0.00 | 0.00 | 0.00 | 81 | 1011.4 |
| 20260904074018 | 64 | 213 | 3.0 | 7.0 | 0.00 | 0.00 | 0.00 | 80 | 1011.5 |
| 20260904073516 | 64 | 232 | 4.0 | 7.0 | 0.00 | 0.00 | 0.00 | 80 | 1011.5 |
| 20260904073038 | 64 | 219 | 3.0 | 6.0 | 0.00 | 0.00 | 0.00 | 79 | 1011.5 |
| 20260904072517 | 64 | 221 | 5.0 | 6.0 | 0.00 | 0.00 | 0.00 | 79 | 1011.5 |
| 20260904070520 | 65 | 252 | 4.0 | 8.0 | 0.00 | 0.00 | 0.00 | 78 | 1011.5 |
| 20260904065517 | 65 | 204 | 5.0 | 9.0 | 0.00 | 0.00 | 0.00 | 77 | 1011.4 |
| 20260904065019 | 65 | 229 | 3.0 | 9.0 | 0.00 | 0.00 | 0.00 | 77 | 1011.3 |
| 20260904064538 | 65 | 221 | 4.0 | 8.0 | 0.00 | 0.00 | 0.00 | 77 | 1011.4 |
| 20260904064017 | 66 | 252 | 5.0 | 8.0 | 0.00 | 0.00 | 0.00 | 77 | 1011.4 |
| 20260904063518 | 66 | 236 | 2.0 | 5.0 | 0.00 | 0.00 | 0.00 | 77 | 1011.4 |
| 20260904063036 | 66 | 219 | 3.0 | 7.0 | 0.00 | 0.00 | 0.00 | 76 | 1011.4 |
| 20260904062517 | 66 | 232 | 2.0 | 7.0 | 0.00 | 0.00 | 0.00 | 76 | 1011.3 |
| 20260904060520 | 66 | 207 | 4.0 | 7.0 | 0.00 | 0.00 | 0.00 | 76 | 1011.3 |
| 20260904055517 | 66 | 225 | 3.0 | 8.0 | 0.00 | 0.00 | 0.00 | 76 | 1011.4 |
| 20260904055017 | 66 | 218 | 5.0 | 8.0 | 0.00 | 0.00 | 0.00 | 76 | 1011.4 |
| 20260904054023 | 66 | 248 | 5.0 | 8.0 | 0.00 | 0.00 | 0.00 | 76 | 1011.4 |
| 20260904053518 | 67 | 242 | 5.0 | 9.0 | 0.00 | 0.00 | 0.00 | 76 | 1011.4 |
| 20260904052019 | 67 | 245 | 4.0 | 7.0 | 0.00 | 0.00 | 0.00 | 75 | 1011.5 |
| 20260904051017 | 67 | 286 | 3.0 | 7.0 | 0.00 | 0.00 | 0.00 | 75 | 1011.5 |
| 20260904050519 | 67 | 265 | 1.0 | 6.0 | 0.00 | 0.00 | 0.00 | 75 | 1011.5 |
| 20260904045519 | 67 | 200 | 2.0 | 4.0 | 0.00 | 0.00 | 0.00 | 75 | 1011.4 |
| 20260904045016 | 67 | 0 | 0.0 | 1.0 | 0.00 | 0.00 | 0.00 | 75 | 1011.2 |
| 20260904044537 | 67 | 0 | 0.0 | 0.0 | 0.00 | 0.00 | 0.00 | 75 | 1011.4 |
| 20260904044017 | 67 | 0 | 0.0 | 0.0 | 0.00 | 0.00 | 0.00 | 75 | 1011.4 |
| 20260904043518 | 67 | 0 | 0.0 | 0.0 | 0.00 | 0.00 | 0.00 | 75 | 1011.5 |
| 20260904043034 | 67 | 0 | 0.0 | 0.0 | 0.00 | 0.00 | 0.00 | 75 | 1011.5 |
| 20260904041019 | 67 | 0 | 0.0 | 2.0 | 0.00 | 0.00 | 0.00 | 75 | 1011.4 |
| 20260904040520 | 67 | 0 | 0.0 | 2.0 | 0.00 | 0.00 | 0.00 | 75 | 1011.4 |
| 20260904035518 | 67 | 0 | 0.0 | 4.0 | 0.00 | 0.00 | 0.00 | 75 | 1011.3 |
| 20260904035019 | 67 | 0 | 0.0 | 4.0 | 0.00 | 0.00 | 0.00 | 75 | 1011.4 |
| 20260904034017 | 68 | 0 | 0.0 | 5.0 | 0.00 | 0.00 | 0.00 | 75 | 1011.4 |
| 20260904033520 | 68 | 253 | 1.0 | 8.0 | 0.00 | 0.00 | 0.00 | 75 | 1011.3 |
| 20260904033038 | 68 | 258 | 3.0 | 8.0 | 0.00 | 0.00 | 0.00 | 75 | 1011.3 |
| 20260904032518 | 68 | 275 | 3.0 | 8.0 | 0.00 | 0.00 | 0.00 | 75 | 1011.2 |
| 20260904032017 | 68 | 267 | 3.0 | 9.0 | 0.00 | 0.00 | 0.00 | 75 | 1011.2 |
| 20260904031537 | 68 | 275 | 5.0 | 9.0 | 0.00 | 0.00 | 0.00 | 74 | 1011.1 |
| 20260904030525 | 68 | 277 | 7.0 | 13.0 | 0.00 | 0.00 | 0.00 | 74 | 1011.0 |
| 20260904025518 | 68 | 277 | 7.0 | 12.0 | 0.00 | 0.00 | 0.00 | 74 | 1011.1 |
| 20260904025020 | 68 | 267 | 7.0 | 13.0 | 0.00 | 0.00 | 0.00 | 74 | 1011.2 |
| 20260904024020 | 69 | 280 | 7.0 | 12.0 | 0.00 | 0.00 | 0.00 | 73 | 1011.3 |
| 20260904023519 | 69 | 263 | 6.0 | 10.0 | 0.00 | 0.00 | 0.00 | 72 | 1011.4 |
| 20260904023037 | 69 | 286 | 4.0 | 11.0 | 0.00 | 0.00 | 0.00 | 72 | 1011.3 |
| 20260904022518 | 69 | 277 | 7.0 | 11.0 | 0.00 | 0.00 | 0.00 | 72 | 1011.3 |
| 20260904022021 | 69 | 268 | 6.0 | 10.0 | 0.00 | 0.00 | 0.00 | 71 | 1011.4 |
| 20260904021548 | 69 | 298 | 6.0 | 10.0 | 0.00 | 0.00 | 0.00 | 71 | 1011.2 |
| 20260904015519 | 70 | 307 | 7.0 | 11.0 | 0.00 | 0.00 | 0.00 | 70 | 1011.3 |
| 20260904015022 | 70 | 294 | 7.0 | 12.0 | 0.00 | 0.00 | 0.00 | 70 | 1011.3 |
| 20260904014020 | 70 | 262 | 9.0 | 12.0 | 0.00 | 0.00 | 0.00 | 69 | 1011.2 |
| 20260904013520 | 70 | 273 | 7.0 | 12.0 | 0.00 | 0.00 | 0.00 | 69 | 1011.3 |
| 20260904013036 | 71 | 275 | 7.0 | 13.0 | 0.00 | 0.00 | 0.00 | 69 | 1011.4 |
| 20260904012521 | 71 | 270 | 8.0 | 14.0 | 0.00 | 0.00 | 0.00 | 68 | 1011.5 |
| 20260904012018 | 71 | 298 | 9.0 | 14.0 | 0.00 | 0.00 | 0.00 | 68 | 1011.4 |
| 20260904011549 | 71 | 296 | 8.0 | 13.0 | 0.00 | 0.00 | 0.00 | 67 | 1011.4 |
| 20260904010518 | 72 | 290 | 7.0 | 15.0 | 0.00 | 0.00 | 0.00 | 66 | 1011.4 |
| 20260904005520 | 72 | 282 | 10.0 | 14.0 | 0.00 | 0.00 | 0.00 | 65 | 1011.5 |
| 20260904005017 | 73 | 283 | 8.0 | 14.0 | 0.00 | 0.00 | 0.00 | 65 | 1011.5 |
| 20260904004537 | 73 | 338 | 7.0 | 13.0 | 0.00 | 0.00 | 0.00 | 64 | 1011.4 |
| 20260904004019 | 74 | 299 | 7.0 | 14.0 | 0.00 | 0.00 | 0.00 | 64 | 1011.5 |
| 20260904002518 | 74 | 274 | 8.0 | 15.0 | 0.00 | 0.00 | 0.00 | 63 | 1011.3 |
| 20260904002020 | 74 | 285 | 9.0 | 15.0 | 0.00 | 0.00 | 0.00 | 63 | 1011.2 |
| 20260904001020 | 74 | 261 | 8.0 | 15.0 | 0.00 | 0.00 | 0.00 | 62 | 1011.3 |
| 20260904000520 | 75 | 296 | 9.0 | 15.0 | 0.00 | 0.00 | 0.00 | 62 | 1011.4 |
| 20260904000040 | 75 | 281 | 9.0 | 15.0 | 0.00 | 0.00 | 0.00 | 62 | 1011.4 |
| 20260903235523 | 75 | 285 | 9.0 | 17.0 | 0.00 | 0.00 | 0.00 | 62 | 1011.5 |
| 20260903235022 | 75 | 286 | 11.0 | 17.0 | 0.00 | 0.00 | 0.00 | 61 | 1011.4 |